| time (UTC) | temp F | wind direction | speed MPH | gust MPH | rain 1hr in | rain 24hr in | rain mn in | humidity % | barometer mb |
| 20260505123524 | 75 | 329 | 2.0 | 3.0 | 0.00 | 0.00 | 0.00 | 43 | 1007.8 |
| 20260505122500 | 76 | 109 | 8.0 | 14.0 | 0.00 | 0.00 | 0.00 | 39 | 1007.8 |
| 20260505121437 | 76 | 343 | 12.0 | 17.0 | 0.00 | 0.00 | 0.00 | 40 | 1007.7 |
| 20260505120436 | 76 | 89 | 5.0 | 8.0 | 0.00 | 0.00 | 0.00 | 40 | 1008.0 |
| 20260505115452 | 74 | 296 | 6.0 | 9.0 | 0.00 | 0.00 | 0.00 | 42 | 1008.0 |
| 20260505114430 | 75 | 322 | 8.0 | 14.0 | 0.00 | 0.00 | 0.00 | 41 | 1008.2 |
| 20260505113428 | 73 | 106 | 1.0 | 3.0 | 0.00 | 0.00 | 0.00 | 46 | 1008.2 |
| 20260505112427 | 74 | 48 | 5.0 | 9.0 | 0.00 | 0.00 | 0.00 | 46 | 1008.3 |
| 20260505111447 | 74 | 96 | 10.0 | 16.0 | 0.00 | 0.00 | 0.00 | 44 | 1008.2 |
| 20260505110427 | 73 | 6 | 4.0 | 7.0 | 0.00 | 0.00 | 0.00 | 43 | 1008.6 |
| 20260505101433 | 71 | 337 | 3.0 | 4.0 | 0.00 | 0.00 | 0.00 | 51 | 1009.2 |
| 20260505100452 | 71 | 13 | 3.0 | 4.0 | 0.00 | 0.00 | 0.00 | 48 | 1009.1 |
| 20260505095427 | 70 | 41 | 7.0 | 14.0 | 0.00 | 0.00 | 0.00 | 49 | 1009.4 |
| 20260505094428 | 70 | 321 | 6.0 | 14.0 | 0.00 | 0.00 | 0.00 | 55 | 1009.3 |
| 20260505093428 | 69 | 341 | 3.0 | 6.0 | 0.00 | 0.00 | 0.00 | 53 | 1009.5 |
| 20260505092427 | 69 | 329 | 1.0 | 2.0 | 0.00 | 0.00 | 0.00 | 54 | 1009.5 |
| 20260505091428 | 68 | 51 | 4.0 | 7.0 | 0.00 | 0.00 | 0.00 | 56 | 1009.6 |
| 20260505090443 | 68 | 330 | 3.0 | 4.0 | 0.00 | 0.00 | 0.00 | 55 | 1009.8 |
| 20260505085440 | 67 | 107 | 2.0 | 4.0 | 0.00 | 0.00 | 0.00 | 57 | 1009.8 |
| 20260505084437 | 67 | 96 | 3.0 | 4.0 | 0.00 | 0.00 | 0.00 | 57 | 1009.9 |
| 20260505083455 | 67 | 285 | 2.0 | 6.0 | 0.00 | 0.00 | 0.00 | 62 | 1010.0 |
| 20260505082432 | 66 | 45 | 4.0 | 4.0 | 0.00 | 0.00 | 0.00 | 62 | 1009.9 |
| 20260505081431 | 66 | 29 | 3.0 | 4.0 | 0.00 | 0.00 | 0.00 | 63 | 1009.9 |
| 20260505080426 | 65 | 340 | 4.0 | 6.0 | 0.00 | 0.00 | 0.00 | 63 | 1010.1 |
| 20260505075508 | 65 | 319 | 2.0 | 3.0 | 0.00 | 0.00 | 0.00 | 63 | 1010.2 |
| 20260505074426 | 65 | 105 | 2.0 | 3.0 | 0.00 | 0.00 | 0.00 | 64 | 1010.2 |
| 20260505073426 | 65 | 211 | 2.0 | 3.0 | 0.00 | 0.00 | 0.00 | 63 | 1010.3 |
| 20260505072445 | 65 | 0.0 | 0.0 | 0.00 | 0.00 | 0.00 | 63 | 1010.2 | |
| 20260505071444 | 65 | 42 | 2.0 | 3.0 | 0.00 | 0.00 | 0.00 | 63 | 1010.2 |
| 20260505070441 | 64 | 184 | 0.0 | 1.0 | 0.00 | 0.00 | 0.00 | 63 | 1010.1 |
| 20260505065436 | 64 | 338 | 3.0 | 4.0 | 0.00 | 0.00 | 0.00 | 63 | 1010.5 |
| 20260505064433 | 64 | 330 | 1.0 | 2.0 | 0.00 | 0.00 | 0.00 | 64 | 1010.3 |
| 20260505063452 | 65 | 0.0 | 0.0 | 0.00 | 0.00 | 0.00 | 60 | 1010.6 | |
| 20260505062427 | 65 | 342 | 1.0 | 3.0 | 0.00 | 0.00 | 0.00 | 59 | 1010.5 |
| 20260505061427 | 67 | 0.0 | 0.0 | 0.00 | 0.00 | 0.00 | 58 | 1010.5 | |
| 20260505060427 | 68 | 116 | 2.0 | 2.0 | 0.00 | 0.00 | 0.00 | 57 | 1010.7 |
| 20260505055427 | 67 | 127 | 1.0 | 2.0 | 0.00 | 0.00 | 0.00 | 57 | 1010.7 |
| 20260505054426 | 67 | 124 | 1.0 | 2.0 | 0.00 | 0.00 | 0.00 | 59 | 1010.6 |
| 20260505053443 | 66 | 128 | 1.0 | 1.0 | 0.00 | 0.00 | 0.00 | 59 | 1010.8 |
| 20260505052441 | 66 | 133 | 1.0 | 2.0 | 0.00 | 0.00 | 0.00 | 62 | 1010.6 |
| 20260505051439 | 63 | 139 | 2.0 | 3.0 | 0.00 | 0.00 | 0.00 | 64 | 1010.8 |
| 20260505050455 | 61 | 137 | 2.0 | 3.0 | 0.00 | 0.00 | 0.00 | 68 | 1010.8 |
| 20260505041426 | 58 | 192 | 1.0 | 3.0 | 0.00 | 0.00 | 0.00 | 68 | 1010.8 |
| 20260505040427 | 59 | 287 | 2.0 | 2.0 | 0.00 | 0.00 | 0.00 | 66 | 1010.9 |
| 20260505035445 | 57 | 284 | 2.0 | 2.0 | 0.00 | 0.00 | 0.00 | 70 | 1010.8 |
| 20260505034443 | 55 | 296 | 3.0 | 3.0 | 0.00 | 0.00 | 0.00 | 73 | 1010.9 |
| 20260505033440 | 55 | 297 | 3.0 | 4.0 | 0.00 | 0.00 | 0.00 | 76 | 1010.9 |
| 20260505032437 | 53 | 259 | 2.0 | 2.0 | 0.00 | 0.00 | 0.00 | 77 | 1010.9 |
| 20260505031434 | 54 | 147 | 3.0 | 3.0 | 0.00 | 0.00 | 0.00 | 75 | 1010.9 |
| 20260505030431 | 56 | 156 | 3.0 | 6.0 | 0.00 | 0.00 | 0.00 | 73 | 1011.0 |
| 20260505025430 | 57 | 0.0 | 0.0 | 0.00 | 0.00 | 0.00 | 70 | 1010.9 | |
| 20260505024426 | 57 | 0.0 | 0.0 | 0.00 | 0.00 | 0.00 | 70 | 1011.1 | |
| 20260505023427 | 57 | 325 | 2.0 | 2.0 | 0.00 | 0.00 | 0.00 | 71 | 1011.1 |
| 20260505022427 | 56 | 315 | 1.0 | 2.0 | 0.00 | 0.00 | 0.00 | 72 | 1011.0 |
| 20260505021427 | 55 | 267 | 2.0 | 2.0 | 0.00 | 0.00 | 0.00 | 76 | 1011.1 |
| 20260505020446 | 55 | 160 | 1.0 | 1.0 | 0.00 | 0.00 | 0.00 | 74 | 1010.9 |
| 20260505015443 | 55 | 155 | 2.0 | 3.0 | 0.00 | 0.00 | 0.00 | 74 | 1011.1 |
| 20260505014441 | 55 | 170 | 3.0 | 4.0 | 0.00 | 0.00 | 0.00 | 73 | 1011.0 |
| 20260505013436 | 55 | 167 | 3.0 | 3.0 | 0.00 | 0.00 | 0.00 | 75 | 1011.1 |
| 20260505012434 | 54 | 155 | 2.0 | 3.0 | 0.00 | 0.00 | 0.00 | 75 | 1011.1 |
| 20260505011432 | 55 | 157 | 2.0 | 6.0 | 0.00 | 0.00 | 0.00 | 75 | 1011.2 |
| 20260505010430 | 54 | 179 | 5.0 | 6.0 | 0.00 | 0.00 | 0.00 | 74 | 1011.4 |
| 20260505005427 | 55 | 191 | 3.0 | 4.0 | 0.00 | 0.00 | 0.00 | 74 | 1011.4 |
| 20260505004427 | 55 | 191 | 4.0 | 7.0 | 0.00 | 0.00 | 0.00 | 73 | 1011.4 |
| 20260505003445 | 55 | 154 | 4.0 | 4.0 | 0.00 | 0.00 | 0.00 | 72 | 1011.7 |
| 20260505002425 | 56 | 176 | 3.0 | 6.0 | 0.00 | 0.00 | 0.00 | 71 | 1011.7 |
| 20260505001444 | 56 | 177 | 3.0 | 6.0 | 0.00 | 0.00 | 0.00 | 70 | 1012.0 |
| 20260505000502 | 56 | 175 | 3.0 | 4.0 | 0.00 | 0.00 | 0.00 | 70 | 1011.8 |
| 20260504235439 | 57 | 150 | 3.0 | 6.0 | 0.00 | 0.00 | 0.00 | 68 | 1011.9 |
| 20260504234438 | 57 | 178 | 2.0 | 4.0 | 0.00 | 0.00 | 0.00 | 70 | 1011.9 |
| 20260504233433 | 57 | 149 | 4.0 | 6.0 | 0.00 | 0.00 | 0.00 | 68 | 1012.1 |
| 20260504232432 | 58 | 155 | 4.0 | 6.0 | 0.00 | 0.00 | 0.00 | 67 | 1012.2 |
| 20260504231428 | 58 | 155 | 3.0 | 4.0 | 0.00 | 0.00 | 0.00 | 66 | 1012.4 |
| 20260504230428 | 59 | 164 | 2.0 | 4.0 | 0.00 | 0.00 | 0.00 | 66 | 1012.4 |
| 20260504225446 | 60 | 161 | 2.0 | 3.0 | 0.00 | 0.00 | 0.00 | 63 | 1012.5 |
| 20260504224507 | 61 | 143 | 3.0 | 3.0 | 0.00 | 0.00 | 0.00 | 61 | 1012.6 |
| 20260504223425 | 61 | 113 | 5.0 | 7.0 | 0.00 | 0.00 | 0.00 | 62 | 1012.7 |
| 20260504222445 | 62 | 182 | 2.0 | 3.0 | 0.00 | 0.00 | 0.00 | 60 | 1012.7 |
| 20260504221441 | 62 | 201 | 2.0 | 3.0 | 0.00 | 0.00 | 0.00 | 61 | 1012.8 |
| 20260504220458 | 61 | 162 | 4.0 | 7.0 | 0.00 | 0.00 | 0.00 | 63 | 1012.8 |
| 20260504215436 | 61 | 158 | 2.0 | 3.0 | 0.00 | 0.00 | 0.00 | 61 | 1013.0 |
| 20260504214432 | 62 | 150 | 1.0 | 2.0 | 0.00 | 0.00 | 0.00 | 60 | 1013.0 |
| 20260504213429 | 63 | 272 | 1.0 | 1.0 | 0.00 | 0.00 | 0.00 | 59 | 1013.1 |
| 20260504212427 | 64 | 0.0 | 0.0 | 0.00 | 0.00 | 0.00 | 58 | 1013.0 | |
| 20260504211427 | 64 | 290 | 3.0 | 6.0 | 0.00 | 0.00 | 0.00 | 58 | 1012.8 |
| 20260504210426 | 64 | 294 | 7.0 | 10.0 | 0.00 | 0.00 | 0.00 | 57 | 1012.8 |
| 20260504205426 | 64 | 277 | 6.0 | 9.0 | 0.00 | 0.00 | 0.00 | 57 | 1013.0 |
| 20260504204444 | 65 | 296 | 7.0 | 9.0 | 0.00 | 0.00 | 0.00 | 57 | 1012.6 |
| 20260504203502 | 65 | 282 | 7.0 | 10.0 | 0.00 | 0.00 | 0.00 | 57 | 1012.6 |
| 20260504202439 | 67 | 281 | 8.0 | 13.0 | 0.00 | 0.00 | 0.00 | 55 | 1012.4 |
| 20260504201437 | 67 | 295 | 5.0 | 7.0 | 0.00 | 0.00 | 0.00 | 55 | 1012.2 |
| 20260504200433 | 67 | 289 | 4.0 | 8.0 | 0.00 | 0.00 | 0.00 | 55 | 1012.0 |
| 20260504195431 | 66 | 0.0 | 0.0 | 0.00 | 0.00 | 0.00 | 56 | 1011.9 | |
| 20260504194528 | 66 | 0.0 | 0.0 | 0.00 | 0.00 | 0.00 | 56 | 1011.7 | |
| 20260504193426 | 66 | 144 | 1.0 | 1.0 | 0.00 | 0.00 | 0.00 | 55 | 1011.7 |
| 20260504192426 | 66 | 144 | 1.0 | 2.0 | 0.00 | 0.00 | 0.00 | 53 | 1011.5 |
| 20260504191427 | 68 | 126 | 2.0 | 3.0 | 0.00 | 0.00 | 0.00 | 52 | 1011.5 |
| 20260504190426 | 69 | 106 | 3.0 | 4.0 | 0.00 | 0.00 | 0.00 | 52 | 1011.6 |
| 20260504185443 | 70 | 120 | 4.0 | 6.0 | 0.00 | 0.00 | 0.00 | 49 | 1011.5 |
| 20260504184440 | 70 | 102 | 7.0 | 9.0 | 0.00 | 0.00 | 0.00 | 49 | 1011.5 |
| 20260504183439 | 70 | 109 | 7.0 | 10.0 | 0.00 | 0.00 | 0.00 | 49 | 1011.3 |
| 20260504182435 | 70 | 110 | 7.0 | 9.0 | 0.00 | 0.00 | 0.00 | 49 | 1011.5 |
| 20260504181432 | 70 | 98 | 6.0 | 9.0 | 0.00 | 0.00 | 0.00 | 50 | 1011.3 |
| 20260504180431 | 71 | 93 | 6.0 | 7.0 | 0.00 | 0.00 | 0.00 | 50 | 1011.4 |
| 20260504175427 | 71 | 104 | 5.0 | 7.0 | 0.00 | 0.00 | 0.00 | 48 | 1011.6 |
| 20260504174426 | 72 | 96 | 5.0 | 7.0 | 0.00 | 0.00 | 0.00 | 48 | 1011.5 |
| 20260504173427 | 72 | 91 | 4.0 | 6.0 | 0.00 | 0.00 | 0.00 | 47 | 1011.6 |
| 20260504172426 | 72 | 87 | 5.0 | 8.0 | 0.00 | 0.00 | 0.00 | 48 | 1011.5 |
| 20260504171506 | 72 | 87 | 7.0 | 9.0 | 0.00 | 0.00 | 0.00 | 46 | 1011.6 |
| 20260504170442 | 72 | 87 | 5.0 | 6.0 | 0.00 | 0.00 | 0.00 | 47 | 1011.7 |
| 20260504160446 | 75 | 86 | 7.0 | 10.0 | 0.00 | 0.00 | 0.00 | 41 | 1012.0 |
| 20260504150438 | 76 | 91 | 8.0 | 11.0 | 0.00 | 0.00 | 0.00 | 40 | 1012.2 |
| 20260504140426 | 77 | 81 | 6.0 | 10.0 | 0.00 | 0.00 | 0.00 | 39 | 1012.9 |
| 20260504130435 | 76 | 83 | 9.0 | 14.0 | 0.00 | 0.00 | 0.00 | 41 | 1013.6 |